Regional Weather Roundup
Issued by NWS Mt. Holly, NJ

Home | Current Version | Previous Version | Text Only | Print | Product List | Glossary On
Versions: 1 2 3 4 5 6 7 8 9 10 11 12 13 14 15 16 17 18 19 20 21 22 23 24 25 26 27 28 29 30 31 32 33 34 35 36 37 38 39 40 41 42 43 44 45 46 47 48 49 50
000
ASUS41 KPHI 262212
RWRPHI

REGIONAL WEATHER ROUNDUP
NATIONAL WEATHER SERVICE MOUNT HOLLY NJ
600 PM EDT THU MAY 26 2016

NOTE:  "FAIR" INDICATES FEW OR NO CLOUDS BELOW 12,000 FEET WITH NO
SIGNIFICANT WEATHER AND/OR OBSTRUCTIONS TO VISIBILITY.

 * = STATION DOES NOT REPORT PRECIPITATION (E.G. RAIN, SNOW, ETC.)
        OR FOG.

NJZ015>026-262300-
SOUTHERN NEW JERSEY

CITY           SKY/WX    TMP DP  RH WIND       PRES   REMARKS
POMONA         SUNNY     83  50  31 S12       30.06S
WILDWOOD*      MOSUNNY  N/A N/A N/A S15       30.06F
MILLVILLE      SUNNY     83  53  35 S10       30.05F
WRIGHTSTOWN    SUNNY     88  54  31 W8        30.00F
MOUNT HOLLY    SUNNY     87  53  31 SW7       30.02F
TRENTON        SUNNY     88  50  27 SW7       30.02F

$$
NJZ001>014-262300-
NORTHERN NEW JERSEY

CITY           SKY/WX    TMP DP  RH WIND       PRES   REMARKS
SUSSEX         CLOUDY    86  54  33 SW7       30.03F
ANDOVER*         N/A     86  53  32 VRB7      30.04F
MORRISTOWN     PTSUNNY   88  52  29 SW8       30.03F
NEWARK         PTSUNNY   87  48  25 SE13      30.02F
TETERBORO      MOSUNNY   88  45  22 S12       30.01S
CALDWELL       MOSUNNY   89  50  26 CALM      30.02F
SOMERVILLE     MOSUNNY   87  53  31 S5        30.01F
ALLAIRE*       MOSUNNY   83  54  36 SE8       30.05F
TOMS RIVER*    SUNNY     86  50  28 S12       30.04S

$$
PAZ043-044-047-054-055-060>062-066>071-262300-
EASTERN PENNSYLVANIA

CITY           SKY/WX    TMP DP  RH WIND       PRES   REMARKS
PHILADELPHIA   MOSUNNY   88  55  32 SW9       30.03F
NORTH PHILA    SUNNY     89  58  34 VRB5      30.04F
BLUE BELL*     MOSUNNY   84  59  42 S5        30.03S
DOYLESTOWN     SUNNY     85  51  31 VRB6      30.03F
QUAKERTOWN*    SUNNY     86  57  37 SW6       30.05S
PERKASIE*      FAIR      84  55  37 W5        30.05F
POTTSTOWN      MOSUNNY   86  57  37 SW8       30.04F
LANCASTER      CLOUDY    82  63  52 SE6       30.01F
COATESVILLE    SUNNY     84  59  42 VRB6G14   30.06S
READING        PTSUNNY   85  58  39 S9        30.00F
ALLENTOWN      MOSUNNY   87  54  32 S10       30.02F
MOUNT POCONO   MOSUNNY   72  50  45 S8        30.09F
HAZLETON       CLOUDY    81  55  41 S5        30.10F
LEHIGHTON      FAIR      86  52  30 CALM      30.03F
WILKES BARRE   PTSUNNY   85  56  37 W10       30.03F

$$
DEZALL-MDZ008-012-015-019-020-262300-
DELAWARE AND EASTERN MARYLAND

CITY           SKY/WX    TMP DP  RH WIND       PRES   REMARKS
WILMINGTON     SUNNY     82  57  42 S14       30.04F
DOVER          SUNNY     82  69  64 E10       30.02F
GEORGETOWN     SUNNY     88  56  33 SW13      30.04F
EASTON           N/A     88  68  51 SW10      30.07F HX  91
ABERDEEN       PTSUNNY   88  66  48 S7        30.02F HX  90
PATUXENT       MOSUNNY   81  65  58 SE8       30.02F
OCEAN CITY     SUNNY     73  65  75 S9        30.07F
WALLOPS ISLAND FAIR      76  66  71 S17       30.08F
CAMBRIDGE      SUNNY     82  63  51 S6        30.04F
SALISBURY      SUNNY     86  58  38 S9        30.04F

$$
PAZ001-021-NYZ056-072-MDZ011-DCZ001-262300-
OTHER NEARBY LOCATIONS

CITY           SKY/WX    TMP DP  RH WIND       PRES   REMARKS
HARRISBURG     CLOUDY    83  59  44 SW3       29.99F
STATE COLLEGE  CLOUDY    77  63  61 S8G17     30.05F
WILLIAMSPORT   CLOUDY    85  59  41 VRB6      29.99F
BINGHAMTON     PTSUNNY   79  55  43 SE6       30.04F
NEW YORK CITY  MOSUNNY   83  47  28 VRB3      30.06F
BALTIMORE      PTSUNNY   87  62  43 SW5       30.00F
WASHINGTON DC  FAIR      83  64  52 S10       30.00F

$$



USA.gov is the U.S. government's official web portal to all federal, state and local government web resources and services.